Weather History for Clarksville, TN

Change the Weather History Date:

Tuesday, February 18, 2014

  Actual Average Record
Temperature  
Mean Temperature 45 °F -  
Max Temperature 63 °F - 76 °F (1951)
Min Temperature 26 °F - 4 °F (1958)
Degree Days  
Heating Degree Days 20    
Month to date heating degree days 590  
Since 1 July heating degree days 3246  
Cooling Degree Days 0    
Month to date cooling degree days 0  
Moisture  
Dew Point 31 °F    
Average Humidity 65    
Maximum Humidity 100    
Minimum Humidity 29    
Precipitation  
Precipitation 0.03 in - 1.96 in (1976)
Month to date precipitation 3.42  
Sea Level Pressure  
Sea Level Pressure 30.08 in    
Wind  
Wind Speed 7 mph (SSE)    
Max Wind Speed 17 mph    
Max Gust Speed 22 mph    
Visibility 6 miles    
Events Fog , Thunderstorm    
T = Trace of Precipitation, MM = Missing Value Source: NWS Daily Summary

Daily Weather History Graph

Daily Weather History Graph

Search for Another Location

Airport:

Trip Planner

Search our weather history database for the weather conditions in past years. The results will help you decide how hot, cold, wet, or windy it might be!

Date:

Astronomy

Feb. 18, 2014 Rise Set
Actual Time 6:34 AM CST 5:33 PM CST
Civil Twilight 6:07 AM CST 5:59 PM CST
Nautical Twilight 5:37 AM CST 6:29 PM CST
Astronomical Twilight 5:07 AM CST 6:59 PM CST
Moon 9:18 PM CST (2/18) 8:12 AM CST (2/18)
Length of Visible Light 11h 51m
Length of Day
10h 59m
Waning Gibbous, 87% of the Moon is Illuminated
Feb 18
Waning Gibbous
Feb 22
Last Quarter
Mar 1
New
Mar 8
First Quarter
Mar 16
Full

Hourly Weather History & Observations

Time (CST) Temp. Windchill Dew Point Humidity Pressure Visibility Wind Dir Wind Speed Gust Speed Precip Events Conditions
12:52 AM 35.1 °F - 30.0 °F 82% 30.15 in 10.0 mi Calm Calm - N/A   Clear
1:52 AM 33.1 °F - 30.9 °F 92% 30.15 in 6.0 mi Calm Calm - N/A   Clear
2:36 AM 30.2 °F - 30.2 °F 100% 30.14 in 1.8 mi Calm Calm - N/A   Clear
2:44 AM 30.2 °F - 28.4 °F 93% 30.14 in 0.5 mi Calm Calm - N/A Fog Light Freezing Fog
2:52 AM 32.0 °F - 28.9 °F 88% 30.15 in 0.8 mi Calm Calm - N/A   Clear
3:09 AM 30.2 °F - 28.4 °F 93% 30.15 in 2.0 mi Calm Calm - N/A   Clear
3:29 AM 30.2 °F - 28.4 °F 93% 30.15 in 3.0 mi Calm Calm - N/A   Clear
3:32 AM 30.2 °F - 28.4 °F 93% 30.14 in 1.5 mi Calm Calm - N/A   Clear
3:45 AM 28.4 °F 24.6 °F 26.6 °F 93% 30.15 in 0.8 mi SSE 3.5 mph - N/A   Clear
3:52 AM 28.0 °F - 27.0 °F 96% 30.16 in 1.0 mi Calm Calm - N/A   Clear
4:13 AM 28.4 °F 24.6 °F 26.6 °F 93% 30.15 in 2.5 mi ESE 3.5 mph - N/A   Clear
4:25 AM 28.4 °F 24.6 °F 28.4 °F 100% 30.15 in 3.0 mi ESE 3.5 mph - N/A   Clear
4:41 AM 28.4 °F 24.6 °F 26.6 °F 93% 30.15 in 1.8 mi ESE 3.5 mph - N/A   Clear
4:52 AM 27.0 °F 21.6 °F 26.1 °F 96% 30.17 in 1.2 mi SE 4.6 mph - N/A   Clear
5:07 AM 26.6 °F 22.6 °F 26.6 °F 100% 30.15 in 0.8 mi East 3.5 mph - N/A   Clear
5:15 AM 26.6 °F 22.6 °F 24.8 °F 93% 30.15 in 1.0 mi ESE 3.5 mph - N/A   Clear
5:23 AM 26.6 °F 21.2 °F 26.6 °F 100% 30.15 in 0.8 mi SE 4.6 mph - N/A   Clear
5:30 AM 26.6 °F - 24.8 °F 93% 30.15 in 2.5 mi Calm Calm - N/A   Clear
5:40 AM 26.6 °F - 26.6 °F 100% 30.16 in 0.8 mi Calm Calm - N/A   Clear
5:52 AM 28.0 °F - 26.1 °F 92% 30.17 in 0.8 mi Calm Calm - N/A   Clear
5:59 AM 28.4 °F - 26.6 °F 93% 30.15 in 1.0 mi Calm Calm - N/A   Clear
6:13 AM 28.4 °F 23.3 °F 26.6 °F 93% 30.15 in 2.5 mi ENE 4.6 mph - N/A   Clear
6:23 AM 28.4 °F 24.6 °F 26.6 °F 93% 30.15 in 5.0 mi ESE 3.5 mph - N/A   Clear
6:40 AM 26.6 °F 22.6 °F 24.8 °F 93% 30.16 in 2.5 mi SSE 3.5 mph - N/A   Clear
6:52 AM 26.1 °F 21.9 °F 25.0 °F 96% 30.17 in 3.0 mi SE 3.5 mph - N/A   Clear
7:52 AM 33.1 °F 30.0 °F 30.0 °F 89% 30.18 in 10.0 mi SE 3.5 mph - N/A   Clear
8:52 AM 44.1 °F 40.1 °F 32.0 °F 63% 30.17 in 10.0 mi South 6.9 mph - N/A   Clear
9:52 AM 48.0 °F - 33.1 °F 56% 30.16 in 10.0 mi SSE 9.2 mph - N/A   Clear
10:52 AM 53.1 °F - 35.1 °F 50% 30.15 in 10.0 mi SSE 9.2 mph - N/A   Clear
11:52 AM 57.0 °F - 30.9 °F 37% 30.12 in 10.0 mi South 15.0 mph 20.7 mph N/A   Clear
12:52 PM 57.9 °F - 30.0 °F 35% 30.08 in 10.0 mi SSE 11.5 mph - N/A   Clear
1:52 PM 61.0 °F - 30.0 °F 31% 30.03 in 10.0 mi South 15.0 mph - N/A   Clear
2:52 PM 61.0 °F - 28.0 °F 29% 29.99 in 10.0 mi South 9.2 mph 17.3 mph N/A   Clear
3:52 PM 61.0 °F - 28.9 °F 30% 29.95 in 10.0 mi South 11.5 mph 17.3 mph N/A   Clear
4:52 PM 60.1 °F - 30.9 °F 33% 29.92 in 10.0 mi South 9.2 mph - N/A   Clear
5:52 PM 57.9 °F - 33.1 °F 39% 29.90 in 10.0 mi SSE 8.1 mph - N/A   Clear
6:52 PM 57.0 °F - 35.1 °F 44% 29.89 in 10.0 mi South 4.6 mph - N/A   Clear
7:52 PM 54.0 °F - 37.0 °F 53% 29.90 in 10.0 mi SSE 3.5 mph - N/A   Mostly Cloudy
8:52 PM 55.9 °F - 39.9 °F 55% 29.89 in 10.0 mi South 6.9 mph - N/A   Scattered Clouds
9:52 PM 57.9 °F - 46.9 °F 67% 29.88 in 10.0 mi SSW 9.2 mph - N/A   Mostly Cloudy
10:52 PM 59.0 °F - 50.0 °F 72% 29.86 in 10.0 mi SSW 10.4 mph - N/A   Scattered Clouds
11:38 PM 60.8 °F - 55.4 °F 82% 29.84 in 10.0 mi SSW 10.4 mph - 0.03 in Thunderstorm Mostly Cloudy
11:52 PM 61.0 °F - 55.0 °F 81% 29.83 in 10.0 mi SSW 12.7 mph 18.4 mph 0.03 in Thunderstorm Overcast